Location: Czekanka
(50.4925°N, 19.2643°E)
Time: 14:24:22
(UTC+00:00)

SL-16 R/B - Pass Details

Date: 22 September 2024
Orbit: 842 x 846 km, 71.0° (Epoch: 07 October)

Event Time Altitude Azimuth Distance (km) Brightness Sun altitude
Rises 01:39:20 0° 332° (NNW) 3,413 5.5 -26.1°
Reaches altitude 10° 01:42:06 10° 343° (NNW) 2,474 4.8 -25.8°
Maximum altitude 01:47:04 31° 45° (NE) 1,460 4.0 -25.1°
Drops below altitude 10° 01:52:02 10° 106° (ESE) 2,462 5.1 -24.5°
Sets 01:54:46 0° 117° (ESE) 3,393 5.7 -24.1°
